When you browse on this site, cookies collect data to enhance your experience and personalize the content and advertising you see.
Visit our Privacy Policy to learn more. By continuing to use the site, you agree to this use of cookies and data.

Stündliche Wetter Sylchet

Heute, 7 August, Freitag

Zeit Temperatur Niederschläge Wind Luftdruck Luftfeuchtigkeit
00:00 +28°C° 0 mm 2 m/S 752 mmHg 94%
01:00 +28°C° 0 mm 2 m/S 752 mmHg 94%
02:00 +27°C° 0 mm 2 m/S 752 mmHg 95%
03:00 +27°C° 0 mm 2 m/S 751 mmHg 95%
04:00 +27°C° 0 mm 2 m/S 751 mmHg 95%
05:00 +27°C° 0 mm 2 m/S 751 mmHg 94%
06:00 +28°C° 0 mm 2 m/S 751 mmHg 94%
07:00 +29°C° 0 mm 2 m/S 752 mmHg 88%
08:00 +30°C° 0 mm 2 m/S 752 mmHg 82%
09:00 +32°C° 0 mm 2 m/S 752 mmHg 76%
10:00 +34°C° 0.5 mm 2 m/S 752 mmHg 73%
11:00 +35°C° 0.5 mm 2 m/S 751 mmHg 71%
12:00 +35°C° 0.5 mm 2 m/S 751 mmHg 68%
13:00 +35°C° 1 mm 2 m/S 750 mmHg 68%
14:00 +35°C° 1 mm 3 m/S 749 mmHg 69%
15:00 +36°C° 1 mm 3 m/S 749 mmHg 70%
16:00 +34°C° 1.3 mm 3 m/S 749 mmHg 74%
17:00 +33°C° 1.3 mm 3 m/S 748 mmHg 79%
18:00 +31°C° 1.3 mm 3 m/S 748 mmHg 84%
19:00 +31°C° 0.7 mm 3 m/S 749 mmHg 86%
20:00 +30°C° 0.7 mm 4 m/S 750 mmHg 88%
21:00 +29°C° 0.7 mm 4 m/S 750 mmHg 90%
22:00 +29°C° 0.2 mm 4 m/S 751 mmHg 90%
23:00 +29°C° 0.2 mm 4 m/S 751 mmHg 91%

Morgen, 8 August, Samstag

Zeit Temperatur Niederschläge Wind Luftdruck Luftfeuchtigkeit
00:00 +28°C° 0.2 mm 4 m/S 751 mmHg 92%
01:00 +28°C° 0.8 mm 3 m/S 750 mmHg 93%
02:00 +28°C° 0.8 mm 3 m/S 750 mmHg 93%
03:00 +28°C° 0.8 mm 3 m/S 750 mmHg 93%
04:00 +28°C° 0.6 mm 3 m/S 750 mmHg 93%
05:00 +28°C° 0.6 mm 3 m/S 750 mmHg 93%
06:00 +28°C° 0.6 mm 3 m/S 750 mmHg 94%
07:00 +29°C° 0.1 mm 3 m/S 750 mmHg 89%
08:00 +30°C° 0.1 mm 3 m/S 750 mmHg 85%
09:00 +31°C° 0.1 mm 3 m/S 750 mmHg 81%
10:00 +33°C° 0.6 mm 3 m/S 750 mmHg 77%
11:00 +34°C° 0.6 mm 3 m/S 750 mmHg 73%
12:00 +35°C° 0.6 mm 3 m/S 749 mmHg 70%
13:00 +35°C° 1.1 mm 3 m/S 749 mmHg 70%
14:00 +35°C° 1.1 mm 3 m/S 748 mmHg 71%
15:00 +35°C° 1.1 mm 3 m/S 748 mmHg 71%
16:00 +34°C° 1.1 mm 3 m/S 748 mmHg 76%
17:00 +33°C° 1.1 mm 3 m/S 748 mmHg 80%
18:00 +31°C° 1.1 mm 2 m/S 748 mmHg 85%
19:00 +31°C° 0.4 mm 2 m/S 749 mmHg 87%
20:00 +30°C° 0.4 mm 2 m/S 749 mmHg 88%
21:00 +29°C° 0.4 mm 2 m/S 750 mmHg 90%
22:00 +29°C° 0 mm 2 m/S 750 mmHg 91%
23:00 +28°C° 0 mm 2 m/S 750 mmHg 92%

übermorgen, 9 August, Sonntag

Zeit Temperatur Niederschläge Wind Luftdruck Luftfeuchtigkeit
00:00 +28°C° 0 mm 2 m/S 750 mmHg 93%
01:00 +28°C° 0 mm 2 m/S 750 mmHg 93%
02:00 +28°C° 0 mm 2 m/S 750 mmHg 93%
03:00 +28°C° 0 mm 2 m/S 749 mmHg 94%
04:00 +28°C° 0.1 mm 2 m/S 750 mmHg 94%
05:00 +28°C° 0.1 mm 2 m/S 750 mmHg 94%
06:00 +28°C° 0.1 mm 1 m/S 750 mmHg 94%
07:00 +29°C° 0.1 mm 2 m/S 750 mmHg 88%
08:00 +30°C° 0.1 mm 2 m/S 751 mmHg 83%
09:00 +32°C° 0.1 mm 2 m/S 751 mmHg 78%
10:00 +34°C° 0.3 mm 2 m/S 750 mmHg 73%
11:00 +35°C° 0.3 mm 2 m/S 750 mmHg 69%
12:00 +36°C° 0.3 mm 2 m/S 750 mmHg 64%
13:00 +36°C° 0.6 mm 2 m/S 749 mmHg 64%
14:00 +36°C° 0.6 mm 2 m/S 748 mmHg 64%
15:00 +36°C° 0.6 mm 2 m/S 748 mmHg 64%
16:00 +35°C° 0.3 mm 2 m/S 748 mmHg 69%
17:00 +34°C° 0.3 mm 2 m/S 748 mmHg 73%
18:00 +32°C° 0.3 mm 2 m/S 748 mmHg 78%
19:00 +31°C° 0.6 mm 2 m/S 749 mmHg 82%
20:00 +31°C° 0.6 mm 2 m/S 749 mmHg 86%
21:00 +30°C° 0.6 mm 2 m/S 750 mmHg 90%
22:00 +29°C° 0.3 mm 2 m/S 750 mmHg 91%
23:00 +29°C° 0.3 mm 2 m/S 750 mmHg 92%

10 August, Montag

Zeit Temperatur Niederschläge Wind Luftdruck Luftfeuchtigkeit
00:00 +28°C° 0.3 mm 2 m/S 750 mmHg 93%
01:00 +28°C° 0.6 mm 2 m/S 750 mmHg 92%
02:00 +28°C° 0.6 mm 1 m/S 750 mmHg 92%
03:00 +28°C° 0.6 mm 1 m/S 749 mmHg 91%
04:00 +28°C° 0.7 mm 1 m/S 749 mmHg 91%
05:00 +28°C° 0.7 mm 1 m/S 749 mmHg 91%
06:00 +28°C° 0.7 mm 1 m/S 750 mmHg 91%
07:00 +29°C° 0.6 mm 2 m/S 750 mmHg 90%
08:00 +29°C° 0.6 mm 2 m/S 750 mmHg 90%
09:00 +29°C° 0.6 mm 3 m/S 751 mmHg 89%
10:00 +29°C° 0.2 mm 2 m/S 751 mmHg 88%
11:00 +29°C° 0.2 mm 2 m/S 750 mmHg 87%
12:00 +29°C° 0.2 mm 2 m/S 750 mmHg 86%
13:00 +30°C° 0.1 mm 2 m/S 749 mmHg 82%
14:00 +31°C° 0.1 mm 2 m/S 748 mmHg 78%
15:00 +32°C° 0.1 mm 2 m/S 748 mmHg 75%
16:00 +31°C° 0 mm 2 m/S 748 mmHg 76%
17:00 +31°C° 0 mm 1 m/S 747 mmHg 77%
18:00 +31°C° 0 mm 1 m/S 747 mmHg 78%
19:00 +30°C° 0 mm 1 m/S 748 mmHg 80%
20:00 +30°C° 0 mm 1 m/S 749 mmHg 83%
21:00 +29°C° 0 mm 1 m/S 749 mmHg 85%
22:00 +29°C° 0 mm 1 m/S 749 mmHg 86%
23:00 +29°C° 0 mm 1 m/S 749 mmHg 86%

11 August, Dienstag

Zeit Temperatur Niederschläge Wind Luftdruck Luftfeuchtigkeit
00:00 +27°C° 0 mm 0 m/S 749 mmHg 86%
01:00 +29°C° 0.3 mm 1 m/S 749 mmHg 87%
02:00 +29°C° 0.3 mm 1 m/S 748 mmHg 88%
03:00 +29°C° 0.3 mm 1 m/S 748 mmHg 88%
04:00 +26°C° 0.1 mm 0 m/S 748 mmHg 89%
05:00 +26°C° 0.1 mm 0 m/S 748 mmHg 89%
06:00 +26°C° 0.1 mm 0 m/S 749 mmHg 89%
07:00 +27°C° 0 mm 0 m/S 749 mmHg 86%
08:00 +28°C° 0 mm 0 m/S 749 mmHg 82%
09:00 +31°C° 0 mm 1 m/S 750 mmHg 79%
10:00 +32°C° 0.1 mm 1 m/S 749 mmHg 73%
11:00 +34°C° 0.1 mm 1 m/S 749 mmHg 68%
12:00 +35°C° 0.1 mm 1 m/S 748 mmHg 62%
13:00 +35°C° 0.2 mm 1 m/S 748 mmHg 61%
14:00 +36°C° 0.2 mm 1 m/S 747 mmHg 60%
15:00 +36°C° 0.2 mm 1 m/S 747 mmHg 58%
16:00 +35°C° 0.5 mm 1 m/S 747 mmHg 65%
17:00 +35°C° 0.5 mm 2 m/S 747 mmHg 71%
18:00 +34°C° 0.5 mm 2 m/S 747 mmHg 78%
19:00 +31°C° 1.1 mm 3 m/S 748 mmHg 82%
20:00 +30°C° 1.1 mm 3 m/S 748 mmHg 86%
21:00 +29°C° 1.1 mm 4 m/S 749 mmHg 90%
22:00 +29°C° 0.1 mm 4 m/S 749 mmHg 91%
23:00 +28°C° 0.1 mm 3 m/S 749 mmHg 92%

12 August, Mittwoch

Zeit Temperatur Niederschläge Wind Luftdruck Luftfeuchtigkeit
00:00 +28°C° 0.1 mm 3 m/S 749 mmHg 93%
01:00 +28°C° 0 mm 3 m/S 749 mmHg 93%
02:00 +28°C° 0 mm 2 m/S 749 mmHg 94%
03:00 +28°C° 0 mm 1 m/S 749 mmHg 94%
04:00 +28°C° 0 mm 1 m/S 749 mmHg 94%
05:00 +27°C° 0 mm 2 m/S 749 mmHg 94%
06:00 +27°C° 0 mm 2 m/S 749 mmHg 94%
07:00 +29°C° 0 mm 2 m/S 749 mmHg 89%
08:00 +30°C° 0 mm 3 m/S 750 mmHg 85%
09:00 +31°C° 0 mm 3 m/S 750 mmHg 80%
10:00 +31°C° 0.2 mm 3 m/S 750 mmHg 76%
11:00 +33°C° 0.2 mm 3 m/S 750 mmHg 72%
12:00 +34°C° 0.2 mm 3 m/S 749 mmHg 68%
13:00 +34°C° 0.9 mm 3 m/S 748 mmHg 69%
14:00 +35°C° 0.9 mm 3 m/S 748 mmHg 70%
15:00 +35°C° 0.9 mm 3 m/S 747 mmHg 71%
16:00 +34°C° 1 mm 3 m/S 747 mmHg 75%
17:00 +33°C° 1 mm 3 m/S 747 mmHg 79%
18:00 +31°C° 1 mm 3 m/S 747 mmHg 83%
19:00 +30°C° 0.8 mm 3 m/S 748 mmHg 85%
20:00 +30°C° 0.8 mm 2 m/S 749 mmHg 88%
21:00 +29°C° 0.8 mm 2 m/S 749 mmHg 91%
22:00 +29°C° 0.2 mm 2 m/S 749 mmHg 91%
23:00 +28°C° 0.2 mm 1 m/S 750 mmHg 91%
Mehr zeigen